Regional Weather Roundup
Issued by NWS

Home | Current Version | Previous Version | Graphics & Text | Print | Product List | Glossary On
Versions: 1 2 3 4 5 6 7 8 9 10 11 12 13 14 15 16 17 18 19 20 21 22 23 24 25 26 27 28 29 30 31 32 33 34 35 36 37 38 39 40 41 42 43 44 45 46 47 48 49 50
000
ASUS43 KMKX 271521
RWRWI

WISCONSIN REGIONAL WEATHER ROUNDUP
NATIONAL WEATHER SERVICE MILWAUKEE/SULLIVAN WI
1000 AM CDT WED AUG 27 2014

NOTE: "FAIR" INDICATES FEW OR NO CLOUDS BELOW 12,000 FEET WITH NO
SIGNIFICANT WEATHER AND/OR OBSTRUCTIONS TO VISIBILITY.

WIZ001-002-006>008-014>016-023>028-271600-
NORTHWEST WISCONSIN

CITY           SKY/WX    TMP DP  RH WIND       PRES   REMARKS
SUPERIOR ARPT  SUNNY     62  54  75 CALM      30.22S
ASHLAND        MOSUNNY   63  51  65 NE3       30.23R
HAYWARD        SUNNY     61  50  67 NE5       30.23R
SIREN          SUNNY     63  51  65 NE6       30.23S
RICE LAKE      SUNNY     64  51  62 N7        30.24S
LADYSMITH      SUNNY     63  50  64 CALM      30.25S
EAU CLAIRE     MOSUNNY   66  55  67 NE6       30.21R
MENOMONIE      MOSUNNY   67  52  59 E3        30.23R
NEW RICHMOND   SUNNY     65  52  61 E5        30.22S
OSCEOLA        SUNNY     65  53  65 E7        30.25R
$$

WIZ003>005-009-010-017-018-271600-
NORTH CENTRAL WISCONSIN

CITY           SKY/WX    TMP DP  RH WIND       PRES   REMARKS
WOODRUFF       MOSUNNY   60  49  67 CALM      30.22S
RHINELANDER    CLOUDY    60  50  69 CALM      30.23R
EAGLE RIVER    PTSUNNY   60  48  65 CALM      30.22R
LAND O LAKES   CLOUDY    59  49  69 N3        30.23R
PHILLIPS       MOSUNNY   58  50  74 N3        30.23R
TOMAHAWK       PTSUNNY   61  52  73 CALM      30.23S
MEDFORD        MOSUNNY   62  51  68 NW7       30.21F
MERRILL        SUNNY     63  55  75 NW3       30.22S
$$

WIZ029-030-035-036-043>047-271600-
CENTRAL WISCONSIN

CITY           SKY/WX    TMP DP  RH WIND       PRES   REMARKS
WAUSAU         SUNNY     64  53  67 MISG      30.19F
MOSINEE        MOSUNNY   64  55  72 CALM      30.22F
MARSHFIELD     MOSUNNY   68  54  60 NW5       30.21S
STEVENS POINT  SUNNY     64  51  64 CALM      30.21S
WAUPACA        SUNNY     70  55  58 SE6       30.21S
WAUTOMA        RAIN      68  56  65 VRB3      30.21S
WISC RAPIDS    SUNNY     68  54  60 VRB3      30.22R
CAMP DOUGLAS   MOSUNNY   68  57  68 CALM      30.21S
$$

WIZ011>013-019>022-031-037>040-048>050-271600-
NORTHEAST WISCONSIN

CITY           SKY/WX    TMP DP  RH WIND       PRES   REMARKS
ANTIGO         MOSUNNY   62  55  76 W7        30.22S
STURGEON BAY   PTSUNNY   64  52  63 CALM      30.21R
GREEN BAY      MOSUNNY   67  55  65 CALM      30.19S
MANITOWOC      MOSUNNY   66  57  72 E3        30.20R
APPLETON       MOSUNNY   66  50  55 CALM      30.21R
CLINTONVILLE   SUNNY     66  50  55 CALM      30.20F
OSHKOSH        MOSUNNY   68  59  73 NE7       30.20R
$$

WIZ032>034-041-042-053>061-271600-
SOUTHWEST WISCONSIN

CITY           SKY/WX    TMP DP  RH WIND       PRES   REMARKS
LA CROSSE      MOSUNNY   72  56  57 E5        30.20R
SPARTA         SUNNY     68  55  62 CALM      30.22R
VIROQUA        FAIR      68  56  66 N6        30.21S
BOSCOBEL       MOSUNNY   71  58  63 CALM      30.20R
PRAIRIE DU CHI MOSUNNY   69  56  64 CALM      30.19R
PLATTEVILLE    FAIR      70  58  65 E7        30.20R
$$

WIZ056-057-062-063-064-067-068-271600-
SOUTH CENTRAL WISCONSIN

CITY           SKY/WX    TMP DP  RH WIND       PRES   REMARKS
BARABOO/DELLS  SUNNY     67  56  67 N3        30.20R
LONE ROCK      MOSUNNY   73  58  59 E3        30.19R
WATERTOWN      SUNNY     68  61  78 NE5       30.16F
MADISON        PTSUNNY   69  59  70 CALM      30.18S
MIDDLETON      FAIR      69  60  73 CALM      30.19R
MONROE         MOSUNNY   70  59  68 CALM      30.18R
JANESVILLE     MOSUNNY   72  57  60 VRB6      30.15S
$$

WIZ051-052-058>065-066-070>072-271600-
SOUTHEAST WISCONSIN

CITY           SKY/WX    TMP DP  RH WIND       PRES   REMARKS
MILWAUKEE      PTSUNNY   69  63  81 NE9       30.16S
WAUKESHA       MOSUNNY   66  59  77 NE3       30.18S
MILWAUKEE/TIMM MOSUNNY   70  59  68 N6        30.18R
RACINE         MOSUNNY   70  63  78 N8        30.18R
BURLINGTON     SUNNY     69  58  67 CALM      30.17R
KENOSHA        SUNNY     72  63  73 VRB3      30.16S
FOND DU LAC    MOSUNNY   69  59  70 NE5       30.20S
SHEBOYGAN      MOSUNNY   69  58  67 NE5       30.19F
WEST BEND      PTSUNNY   68  59  73 NE9       30.18S
JUNEAU         SUNNY     67  60  80 N8        30.19F
$$

LSZ147-162-271600-
LAKE SUPERIOR

STATION/POSITION TIME  TEMP    WIND        PRES    WAVE
                       AIR SEA DIR/SP/G            HT/PER
                 (UTC) (F)     (DEG/KT/KT) (MB)    (FT/S)
W MID LAKE BUOY  1450   56 55  270/  6/  6 1022.6R   0
DEVILS ISLAND    1500   58     300/  4/  5 1023.3R
PORT WING        1400   59     340/  6/  6 1023.0S
SAXON HARBOR     1400   60     340/  6/  8 1023.0S
$$

LMZ867-665-643>646-271600-
LAKE MICHIGAN

STATION/POSITION TIME  TEMP    WIND        PRES    WAVE
                       AIR SEA DIR/SP/G            HT/PER
                 (UTC) (F)     (DEG/KT/KT) (MB)    (FT/S)
N MID LAKE BUOY  1450   61 65  340/  6/  8 1022.4R   1
NORTHPORT PIER   1400   62     350/  4/  6 1022.0R
SISTER BAY       1411   67     350/  6/  7   N/A
ALGOMA LAKESHORE 1353             CALM       N/A
KEWAUNEE LAKESHO 1500   65     110/  2/  3 1021.8R
SHEBOYGAN LAKESH 1500   65 66   30/  7/  8 1022.6R
ATWATER BUOY     1500   67     360/ 10/ 12 1022.6R
MILWAUKEE LAKESH 1500   66      30/  9/ 11   N/A
S MID LAKE BUOY  1450   68 69  100/  6/  6 1020.9F   0
KENOSHA   LAKESH 1500   68      50/  7/  8 1020.7S
$$

TC  - TEMPERATURE IN CELSIUS
VSB - VISIBILITY IN STATUTE MILES
WCI - WIND CHILL INDEX
HX  - HEAT INDEX



USA.gov is the U.S. government's official web portal to all federal, state and local government web resources and services.